Time,TemperatureF,DewpointF,PressureIn,WindDirection,WindDirectionDegrees,WindSpeedMPH,WindSpeedGustMPH,Humidity,HourlyPrecipIn,Conditions,Clouds,dailyrainin,SolarRadiationWatts/m^2,SoftwareType,DateUTC
2013-01-22 00:03:00,55.6,43.2,30.10,NW,307,0.0,0.0,63,0.00,,,0.00,0,Wunderground v.1.15,2013-01-22 05:03:00,
2013-01-22 00:08:00,55.6,43.2,30.10,NW,307,0.0,3.0,63,0.00,,,0.00,0,Wunderground v.1.15,2013-01-22 05:08:00,
2013-01-22 00:13:00,55.5,43.1,30.10,NW,307,0.0,0.0,63,0.00,,,0.00,0,Wunderground v.1.15,2013-01-22 05:13:00,
2013-01-22 00:18:00,55.5,43.1,30.10,NW,307,0.0,0.0,63,0.00,,,0.00,0,Wunderground v.1.15,2013-01-22 05:18:00,
2013-01-22 00:28:00,55.5,43.1,30.10,NW,307,0.0,0.0,63,0.00,,,0.00,0,Wunderground v.1.15,2013-01-22 05:28:00,
2013-01-22 00:33:00,55.5,43.1,30.10,NW,307,1.0,1.0,63,0.00,,,0.00,0,Wunderground v.1.15,2013-01-22 05:33:00,
2013-01-22 00:43:00,55.4,43.0,30.10,NW,307,0.0,0.0,63,0.00,,,0.00,0,Wunderground v.1.15,2013-01-22 05:43:00,
2013-01-22 00:48:00,55.4,43.0,30.10,NW,307,0.0,0.0,63,0.00,,,0.00,0,Wunderground v.1.15,2013-01-22 05:48:00,
2013-01-22 00:58:00,55.2,42.8,30.10,NW,307,0.0,0.0,63,0.00,,,0.00,0,Wunderground v.1.15,2013-01-22 05:58:00,
2013-01-22 01:03:00,55.2,42.8,30.10,NW,307,0.0,1.0,63,0.00,,,0.00,0,Wunderground v.1.15,2013-01-22 06:03:00,
2013-01-22 01:08:00,55.1,42.7,30.10,NW,307,1.0,1.0,63,0.00,,,0.00,0,Wunderground v.1.15,2013-01-22 06:08:00,
2013-01-22 01:18:00,55.1,43.1,30.10,NW,307,0.0,1.0,64,0.00,,,0.00,0,Wunderground v.1.15,2013-01-22 06:18:00,
2013-01-22 01:23:00,55.0,43.0,30.10,NW,307,1.0,1.0,64,0.00,,,0.00,0,Wunderground v.1.15,2013-01-22 06:23:00,
2013-01-22 01:28:00,54.9,42.9,30.10,NW,307,1.0,1.0,64,0.00,,,0.00,0,Wunderground v.1.15,2013-01-22 06:28:00,
2013-01-22 01:33:00,54.8,42.9,30.10,NW,307,0.0,0.0,64,0.00,,,0.00,0,Wunderground v.1.15,2013-01-22 06:33:00,
2013-01-22 01:43:00,54.5,43.0,30.11,NW,307,0.0,0.0,65,0.00,,,0.00,0,Wunderground v.1.15,2013-01-22 06:43:00,
2013-01-22 01:48:00,54.5,43.0,30.11,NW,307,0.0,0.0,65,0.00,,,0.00,0,Wunderground v.1.15,2013-01-22 06:48:00,
2013-01-22 01:58:00,54.2,42.7,30.11,NW,307,0.0,0.0,65,0.00,,,0.00,0,Wunderground v.1.15,2013-01-22 06:58:00,
2013-01-22 02:03:00,54.0,42.5,30.11,NW,307,0.0,1.0,65,0.00,,,0.00,0,Wunderground v.1.15,2013-01-22 07:03:00,
2013-01-22 02:13:00,53.8,42.7,30.11,NW,307,0.0,2.0,66,0.00,,,0.00,0,Wunderground v.1.15,2013-01-22 07:13:00,
2013-01-22 02:18:00,53.7,42.6,30.11,NW,307,0.0,2.0,66,0.00,,,0.00,0,Wunderground v.1.15,2013-01-22 07:18:00,
2013-01-22 02:23:00,53.6,42.5,30.11,NW,307,1.0,1.0,66,0.00,,,0.00,0,Wunderground v.1.15,2013-01-22 07:23:00,
2013-01-22 02:33:00,53.4,42.3,30.12,NW,307,0.0,0.0,66,0.00,,,0.00,0,Wunderground v.1.15,2013-01-22 07:33:00,
2013-01-22 02:43:00,53.3,42.6,30.12,NW,307,0.0,0.0,67,0.00,,,0.00,0,Wunderground v.1.15,2013-01-22 07:43:00,
2013-01-22 02:48:00,53.2,42.5,30.12,NW,307,0.0,0.0,67,0.00,,,0.00,0,Wunderground v.1.15,2013-01-22 07:48:00,
2013-01-22 02:58:00,52.8,41.7,30.12,NW,307,1.0,1.0,66,0.00,,,0.00,0,Wunderground v.1.15,2013-01-22 07:58:00,
2013-01-22 03:03:00,52.8,41.0,30.12,NNW,346,2.0,3.0,64,0.00,,,0.00,0,Wunderground v.1.15,2013-01-22 08:03:00,
2013-01-22 03:13:00,52.7,40.9,30.12,NNW,346,2.0,2.0,64,0.00,,,0.00,0,Wunderground v.1.15,2013-01-22 08:13:00,
2013-01-22 03:18:00,52.7,40.5,30.11,NNW,347,2.0,2.0,63,0.00,,,0.00,0,Wunderground v.1.15,2013-01-22 08:18:00,
2013-01-22 03:28:00,52.6,40.4,30.11,NNW,347,2.0,4.0,63,0.00,,,0.00,0,Wunderground v.1.15,2013-01-22 08:28:00,
2013-01-22 03:33:00,52.6,40.4,30.11,NNW,347,1.0,2.0,63,0.00,,,0.00,0,Wunderground v.1.15,2013-01-22 08:33:00,
2013-01-22 03:43:00,52.4,40.2,30.11,NNW,347,2.0,4.0,63,0.00,,,0.00,0,Wunderground v.1.15,2013-01-22 08:43:00,
2013-01-22 03:48:00,52.3,40.1,30.11,NNW,347,2.0,4.0,63,0.00,,,0.00,0,Wunderground v.1.15,2013-01-22 08:48:00,
2013-01-22 03:58:00,52.1,40.3,30.12,NNW,347,1.0,2.0,64,0.00,,,0.00,0,Wunderground v.1.15,2013-01-22 08:58:00,
2013-01-22 04:03:00,51.9,40.1,30.11,NNW,347,1.0,2.0,64,0.00,,,0.00,0,Wunderground v.1.15,2013-01-22 09:03:00,
2013-01-22 04:13:00,51.7,39.9,30.12,NNW,347,1.0,2.0,64,0.00,,,0.00,0,Wunderground v.1.15,2013-01-22 09:13:00,
2013-01-22 04:18:00,51.6,39.8,30.12,NNW,347,1.0,2.0,64,0.00,,,0.00,0,Wunderground v.1.15,2013-01-22 09:18:00,
2013-01-22 04:28:00,51.4,40.0,30.12,North,350,1.0,2.0,65,0.00,,,0.00,0,Wunderground v.1.15,2013-01-22 09:28:00,
2013-01-22 04:33:00,51.2,39.4,30.12,North,350,1.0,1.0,64,0.00,,,0.00,0,Wunderground v.1.15,2013-01-22 09:33:00,
2013-01-22 04:43:00,50.9,39.5,30.13,North,350,1.0,1.0,65,0.00,,,0.00,0,Wunderground v.1.15,2013-01-22 09:43:00,
2013-01-22 04:48:00,50.8,39.8,30.13,North,350,1.0,1.0,66,0.00,,,0.00,0,Wunderground v.1.15,2013-01-22 09:48:00,
2013-01-22 04:53:00,50.6,39.7,30.13,North,350,1.0,1.0,66,0.00,,,0.00,0,Wunderground v.1.15,2013-01-22 09:53:00,
2013-01-22 04:58:00,50.5,39.6,30.13,North,350,0.0,1.0,66,0.00,,,0.00,0,Wunderground v.1.15,2013-01-22 09:58:00,
2013-01-22 05:03:00,50.3,39.8,30.14,North,350,0.0,0.0,67,0.00,,,0.00,0,Wunderground v.1.15,2013-01-22 10:03:00,
2013-01-22 05:13:00,50.0,39.8,30.14,North,350,0.0,0.0,68,0.00,,,0.00,0,Wunderground v.1.15,2013-01-22 10:13:00,
2013-01-22 05:18:00,49.7,39.9,30.14,North,350,0.0,3.0,69,0.00,,,0.00,0,Wunderground v.1.15,2013-01-22 10:18:00,
2013-01-22 05:28:00,49.2,39.5,30.15,North,349,1.0,3.0,69,0.00,,,0.00,0,Wunderground v.1.15,2013-01-22 10:28:00,
2013-01-22 05:38:00,49.0,38.9,30.15,NNE,19,2.0,6.0,68,0.00,,,0.00,0,Wunderground v.1.15,2013-01-22 10:38:00,
2013-01-22 05:43:00,48.9,38.4,30.15,NNE,30,3.0,4.0,67,0.00,,,0.00,0,Wunderground v.1.15,2013-01-22 10:43:00,
2013-01-22 05:48:00,48.8,37.9,30.15,NNE,30,4.0,4.0,66,0.00,,,0.00,0,Wunderground v.1.15,2013-01-22 10:48:00,
2013-01-22 05:58:00,48.6,37.7,30.16,NE,35,2.0,3.0,66,0.00,,,0.00,0,Wunderground v.1.15,2013-01-22 10:58:00,
2013-01-22 06:03:00,48.5,37.7,30.17,NE,39,3.0,3.0,66,0.00,,,0.00,0,Wunderground v.1.15,2013-01-22 11:03:00,
2013-01-22 06:13:00,48.3,37.1,30.17,NE,40,2.0,2.0,65,0.00,,,0.00,0,Wunderground v.1.15,2013-01-22 11:13:00,
2013-01-22 06:18:00,48.2,37.4,30.18,NE,40,2.0,2.0,66,0.00,,,0.00,0,Wunderground v.1.15,2013-01-22 11:18:00,
2013-01-22 06:28:00,47.9,37.1,30.18,NE,40,2.0,6.0,66,0.00,,,0.00,0,Wunderground v.1.15,2013-01-22 11:28:00,
2013-01-22 06:33:00,47.7,36.9,30.18,NE,40,2.0,3.0,66,0.00,,,0.00,0,Wunderground v.1.15,2013-01-22 11:33:00,
2013-01-22 06:43:00,47.4,37.0,30.19,NE,41,1.0,1.0,67,0.00,,,0.00,0,Wunderground v.1.15,2013-01-22 11:43:00,
2013-01-22 06:48:00,47.2,36.8,30.19,NE,41,1.0,1.0,67,0.00,,,0.00,0,Wunderground v.1.15,2013-01-22 11:48:00,
2013-01-22 06:58:00,46.9,36.5,30.20,NE,42,1.0,3.0,67,0.00,,,0.00,0,Wunderground v.1.15,2013-01-22 11:58:00,
2013-01-22 07:03:00,46.8,36.4,30.20,NE,41,1.0,4.0,67,0.00,,,0.00,0,Wunderground v.1.15,2013-01-22 12:03:00,
2013-01-22 07:13:00,46.6,36.2,30.21,NE,41,0.0,0.0,67,0.00,,,0.00,0,Wunderground v.1.15,2013-01-22 12:13:00,
2013-01-22 07:18:00,46.4,36.0,30.21,NE,41,0.0,0.0,67,0.00,,,0.00,0,Wunderground v.1.15,2013-01-22 12:18:00,
2013-01-22 07:28:00,46.1,35.7,30.22,NE,41,0.0,1.0,67,0.00,,,0.00,5,Wunderground v.1.15,2013-01-22 12:28:00,
2013-01-22 07:33:00,46.1,35.7,30.22,NE,41,0.0,0.0,67,0.00,,,0.00,11,Wunderground v.1.15,2013-01-22 12:33:00,
2013-01-22 07:43:00,46.0,35.3,30.22,NE,39,1.0,1.0,66,0.00,,,0.00,18,Wunderground v.1.15,2013-01-22 12:43:00,
2013-01-22 07:48:00,46.0,34.9,30.23,NE,39,1.0,1.0,65,0.00,,,0.00,26,Wunderground v.1.15,2013-01-22 12:48:00,
2013-01-22 07:58:00,46.1,34.6,30.23,NE,39,0.0,5.0,64,0.00,,,0.00,39,Wunderground v.1.15,2013-01-22 12:58:00,
2013-01-22 08:03:00,46.2,33.9,30.23,NE,39,1.0,1.0,62,0.00,,,0.00,44,Wunderground v.1.15,2013-01-22 13:03:00,
2013-01-22 08:13:00,46.3,34.4,30.23,NE,37,1.0,3.0,63,0.00,,,0.00,60,Wunderground v.1.15,2013-01-22 13:13:00,
2013-01-22 08:23:00,46.3,34.4,30.23,NNE,23,2.0,4.0,63,0.00,,,0.00,79,Wunderground v.1.15,2013-01-22 13:23:00,
2013-01-22 08:28:00,46.3,34.8,30.24,NNE,21,2.0,4.0,64,0.00,,,0.00,88,Wunderground v.1.15,2013-01-22 13:28:00,
2013-01-22 08:38:00,46.5,35.0,30.24,NNE,24,1.0,3.0,64,0.00,,,0.00,114,Wunderground v.1.15,2013-01-22 13:38:00,
2013-01-22 08:48:00,46.8,34.0,30.25,North,369,2.0,2.0,61,0.00,,,0.00,130,Wunderground v.1.15,2013-01-22 13:48:00,
2013-01-22 08:53:00,47.0,33.4,30.25,NNE,14,3.0,3.0,59,0.00,,,0.00,132,Wunderground v.1.15,2013-01-22 13:53:00,
2013-01-22 09:03:00,47.5,33.0,30.26,NNE,14,2.0,2.0,57,0.00,,,0.00,132,Wunderground v.1.15,2013-01-22 14:03:00,
2013-01-22 09:13:00,47.8,32.9,30.26,NNE,25,2.0,2.0,56,0.00,,,0.00,158,Wunderground v.1.15,2013-01-22 14:13:00,
2013-01-22 09:18:00,48.2,32.8,30.26,NNE,25,1.0,2.0,55,0.00,,,0.00,181,Wunderground v.1.15,2013-01-22 14:18:00,
2013-01-22 09:28:00,48.7,32.8,30.27,NNE,25,2.0,3.0,54,0.00,,,0.00,195,Wunderground v.1.15,2013-01-22 14:28:00,
2013-01-22 09:33:00,48.9,32.5,30.27,NNE,26,2.0,2.0,53,0.00,,,0.00,190,Wunderground v.1.15,2013-01-22 14:33:00,
2013-01-22 09:43:00,49.3,31.9,30.27,NNE,28,2.0,3.0,51,0.00,,,0.00,214,Wunderground v.1.15,2013-01-22 14:43:00,
2013-01-22 09:48:00,49.5,32.1,30.27,NNE,28,3.0,3.0,51,0.00,,,0.00,232,Wunderground v.1.15,2013-01-22 14:48:00,
2013-01-22 09:58:00,50.0,32.1,30.28,NNE,28,2.0,6.0,50,0.00,,,0.00,283,Wunderground v.1.15,2013-01-22 14:58:00,
2013-01-22 10:03:00,50.3,31.8,30.28,NNE,26,2.0,2.0,49,0.00,,,0.00,306,Wunderground v.1.15,2013-01-22 15:03:00,
2013-01-22 10:13:00,50.9,31.9,30.28,North,357,2.0,2.0,48,0.00,,,0.00,299,Wunderground v.1.15,2013-01-22 15:13:00,
2013-01-22 10:18:00,51.2,31.6,30.29,North,369,2.0,6.0,47,0.00,,,0.00,306,Wunderground v.1.15,2013-01-22 15:18:00,
2013-01-22 10:28:00,51.5,30.3,30.29,NE,37,4.0,4.0,44,0.00,,,0.00,362,Wunderground v.1.15,2013-01-22 15:28:00,
2013-01-22 10:33:00,51.8,31.1,30.29,NE,37,3.0,3.0,45,0.00,,,0.00,318,Wunderground v.1.15,2013-01-22 15:33:00,
2013-01-22 10:43:00,53.0,32.2,30.29,NE,37,1.0,1.0,45,0.00,,,0.00,353,Wunderground v.1.15,2013-01-22 15:43:00,
2013-01-22 10:48:00,53.3,31.4,30.29,NE,35,1.0,3.0,43,0.00,,,0.00,418,Wunderground v.1.15,2013-01-22 15:48:00,
2013-01-22 10:58:00,53.7,31.7,30.30,NE,51,2.0,5.0,43,0.00,,,0.00,469,Wunderground v.1.15,2013-01-22 15:58:00,
2013-01-22 11:03:00,54.0,30.8,30.29,NE,51,2.0,2.0,41,0.00,,,0.00,406,Wunderground v.1.15,2013-01-22 16:03:00,
2013-01-22 11:13:00,55.0,32.3,30.30,NE,51,1.0,4.0,42,0.00,,,0.00,475,Wunderground v.1.15,2013-01-22 16:13:00,
2013-01-22 11:18:00,55.1,31.8,30.29,NE,51,1.0,4.0,41,0.00,,,0.00,457,Wunderground v.1.15,2013-01-22 16:18:00,
2013-01-22 11:28:00,55.5,31.5,30.29,NE,51,2.0,6.0,40,0.00,,,0.00,397,Wunderground v.1.15,2013-01-22 16:28:00,
2013-01-22 11:33:00,55.7,30.5,30.29,NE,48,2.0,5.0,38,0.00,,,0.00,388,Wunderground v.1.15,2013-01-22 16:33:00,
2013-01-22 11:43:00,56.0,31.4,30.29,NE,48,2.0,2.0,39,0.00,,,0.00,348,Wunderground v.1.15,2013-01-22 16:43:00,
2013-01-22 11:53:00,56.3,31.6,30.28,NE,47,1.0,3.0,39,0.00,,,0.00,497,Wunderground v.1.15,2013-01-22 16:53:00,
2013-01-22 11:58:00,56.4,31.7,30.28,NE,46,1.0,3.0,39,0.00,,,0.00,487,Wunderground v.1.15,2013-01-22 16:58:00,
2013-01-22 12:03:00,56.9,31.5,30.28,NE,46,1.0,1.0,38,0.00,,,0.00,390,Wunderground v.1.15,2013-01-22 17:03:00,
2013-01-22 12:13:00,57.3,31.9,30.27,NE,46,1.0,1.0,38,0.00,,,0.00,406,Wunderground v.1.15,2013-01-22 17:13:00,
2013-01-22 12:18:00,57.2,31.8,30.27,NE,46,0.0,1.0,38,0.00,,,0.00,492,Wunderground v.1.15,2013-01-22 17:18:00,
2013-01-22 12:28:00,58.0,31.8,30.27,NE,46,0.0,0.0,37,0.00,,,0.00,513,Wunderground v.1.15,2013-01-22 17:28:00,
2013-01-22 12:33:00,58.7,31.8,30.26,NE,37,1.0,1.0,36,0.00,,,0.00,529,Wunderground v.1.15,2013-01-22 17:33:00,
2013-01-22 12:38:00,58.9,32.0,30.26,NE,38,1.0,1.0,36,0.00,,,0.00,538,Wunderground v.1.15,2013-01-22 17:38:00,
2013-01-22 12:48:00,59.8,31.3,30.26,NNE,30,3.0,3.0,34,0.00,,,0.00,668,Wunderground v.1.15,2013-01-22 17:48:00,
2013-01-22 12:58:00,60.7,30.6,30.25,North,351,3.0,3.0,32,0.00,,,0.00,592,Wunderground v.1.15,2013-01-22 17:58:00,
2013-01-22 13:03:00,60.9,30.0,30.25,North,351,3.0,4.0,31,0.00,,,0.00,612,Wunderground v.1.15,2013-01-22 18:03:00,
2013-01-22 13:13:00,61.3,29.6,30.24,North,351,2.0,4.0,30,0.00,,,0.00,555,Wunderground v.1.15,2013-01-22 18:13:00,
2013-01-22 13:18:00,60.9,30.0,30.24,NNW,346,3.0,4.0,31,0.00,,,0.00,543,Wunderground v.1.15,2013-01-22 18:18:00,
2013-01-22 13:28:00,61.2,31.1,30.24,NNW,346,1.0,3.0,32,0.00,,,0.00,548,Wunderground v.1.15,2013-01-22 18:28:00,
2013-01-22 13:33:00,61.7,31.5,30.23,NNW,346,0.0,0.0,32,0.00,,,0.00,589,Wunderground v.1.15,2013-01-22 18:33:00,
2013-01-22 13:43:00,62.4,31.3,30.23,NNW,340,1.0,4.0,31,0.00,,,0.00,608,Wunderground v.1.15,2013-01-22 18:43:00,
2013-01-22 13:48:00,62.3,31.3,30.23,NW,315,2.0,4.0,31,0.00,,,0.00,575,Wunderground v.1.15,2013-01-22 18:48:00,
2013-01-22 13:58:00,62.4,31.3,30.22,NW,320,2.0,3.0,31,0.00,,,0.00,564,Wunderground v.1.15,2013-01-22 18:58:00,
2013-01-22 14:03:00,62.7,31.6,30.22,NW,320,1.0,1.0,31,0.00,,,0.00,555,Wunderground v.1.15,2013-01-22 19:03:00,
2013-01-22 14:13:00,62.8,30.9,30.22,WNW,301,2.0,2.0,30,0.00,,,0.00,515,Wunderground v.1.15,2013-01-22 19:13:00,
2013-01-22 14:18:00,63.1,31.9,30.22,WNW,299,2.0,2.0,31,0.00,,,0.00,487,Wunderground v.1.15,2013-01-22 19:18:00,
2013-01-22 14:28:00,63.3,32.9,30.22,WNW,299,2.0,4.0,32,0.00,,,0.00,459,Wunderground v.1.15,2013-01-22 19:28:00,
2013-01-22 14:33:00,63.1,32.7,30.22,NW,307,3.0,3.0,32,0.00,,,0.00,526,Wunderground v.1.15,2013-01-22 19:33:00,
2013-01-22 14:43:00,63.9,32.6,30.22,West,279,2.0,2.0,31,0.00,,,0.00,515,Wunderground v.1.15,2013-01-22 19:43:00,
2013-01-22 14:48:00,63.8,32.6,30.22,West,281,1.0,2.0,31,0.00,,,0.00,422,Wunderground v.1.15,2013-01-22 19:48:00,
2013-01-22 14:58:00,63.7,32.5,30.22,WNW,290,1.0,1.0,31,0.00,,,0.00,454,Wunderground v.1.15,2013-01-22 19:58:00,
2013-01-22 15:03:00,63.6,33.2,30.22,WNW,292,1.0,1.0,32,0.00,,,0.00,380,Wunderground v.1.15,2013-01-22 20:03:00,
2013-01-22 15:13:00,63.6,32.4,30.22,WNW,296,1.0,1.0,31,0.00,,,0.00,387,Wunderground v.1.15,2013-01-22 20:13:00,
2013-01-22 15:18:00,63.4,31.4,30.22,WNW,301,2.0,2.0,30,0.00,,,0.00,385,Wunderground v.1.15,2013-01-22 20:18:00,
2013-01-22 15:28:00,63.0,31.9,30.22,NW,304,2.0,5.0,31,0.00,,,0.00,410,Wunderground v.1.15,2013-01-22 20:28:00,
2013-01-22 15:33:00,62.9,31.8,30.22,NW,308,1.0,1.0,31,0.00,,,0.00,380,Wunderground v.1.15,2013-01-22 20:33:00,
2013-01-22 15:38:00,62.7,31.6,30.22,NW,308,1.0,1.0,31,0.00,,,0.00,350,Wunderground v.1.15,2013-01-22 20:38:00,
2013-01-22 15:48:00,62.6,32.3,30.23,NW,308,1.0,6.0,32,0.00,,,0.00,316,Wunderground v.1.15,2013-01-22 20:48:00,
2013-01-22 15:58:00,62.3,32.8,30.23,NW,308,2.0,3.0,33,0.00,,,0.00,225,Wunderground v.1.15,2013-01-22 20:58:00,
2013-01-22 16:03:00,62.1,32.6,30.23,NW,305,2.0,6.0,33,0.00,,,0.00,185,Wunderground v.1.15,2013-01-22 21:03:00,
2013-01-22 16:13:00,61.8,33.1,30.24,NW,305,1.0,1.0,34,0.00,,,0.00,118,Wunderground v.1.15,2013-01-22 21:13:00,
2013-01-22 16:18:00,61.6,33.7,30.24,NW,305,0.0,1.0,35,0.00,,,0.00,113,Wunderground v.1.15,2013-01-22 21:18:00,
2013-01-22 16:28:00,61.4,33.5,30.24,NW,305,0.0,1.0,35,0.00,,,0.00,98,Wunderground v.1.15,2013-01-22 21:28:00,
2013-01-22 16:33:00,61.4,33.5,30.25,NW,305,1.0,2.0,35,0.00,,,0.00,102,Wunderground v.1.15,2013-01-22 21:33:00,
2013-01-22 16:43:00,61.1,33.2,30.24,NW,314,2.0,2.0,35,0.00,,,0.00,79,Wunderground v.1.15,2013-01-22 21:43:00,
2013-01-22 16:48:00,60.8,33.0,30.24,NW,314,1.0,2.0,35,0.00,,,0.00,86,Wunderground v.1.15,2013-01-22 21:48:00,
2013-01-22 16:58:00,60.4,32.6,30.25,NNW,329,1.0,1.0,35,0.00,,,0.00,69,Wunderground v.1.15,2013-01-22 21:58:00,
2013-01-22 17:03:00,60.3,33.2,30.25,NNW,329,1.0,1.0,36,0.00,,,0.00,67,Wunderground v.1.15,2013-01-22 22:03:00,
2013-01-22 17:13:00,59.9,33.5,30.25,NNW,329,0.0,0.0,37,0.00,,,0.00,56,Wunderground v.1.15,2013-01-22 22:13:00,
2013-01-22 17:18:00,59.7,32.7,30.25,NNW,329,0.0,3.0,36,0.00,,,0.00,44,Wunderground v.1.15,2013-01-22 22:18:00,
2013-01-22 17:28:00,59.3,33.0,30.25,NNW,329,0.0,0.0,37,0.00,,,0.00,30,Wunderground v.1.15,2013-01-22 22:28:00,
2013-01-22 17:33:00,59.1,33.5,30.25,NNW,329,0.0,0.0,38,0.00,,,0.00,25,Wunderground v.1.15,2013-01-22 22:33:00,
2013-01-22 17:43:00,58.8,34.5,30.26,NNW,329,0.0,0.0,40,0.00,,,0.00,11,Wunderground v.1.15,2013-01-22 22:43:00,
2013-01-22 17:48:00,58.6,34.3,30.26,NNW,329,0.0,0.0,40,0.00,,,0.00,5,Wunderground v.1.15,2013-01-22 22:48:00,
2013-01-22 17:58:00,58.2,34.0,30.26,NNW,329,0.0,0.0,40,0.00,,,0.00,0,Wunderground v.1.15,2013-01-22 22:58:00,
2013-01-22 18:03:00,57.9,35.5,30.26,NNW,329,0.0,0.0,43,0.00,,,0.00,0,Wunderground v.1.15,2013-01-22 23:03:00,
2013-01-22 18:13:00,57.3,35.6,30.26,NNW,329,0.0,0.0,44,0.00,,,0.00,0,Wunderground v.1.15,2013-01-22 23:13:00,
2013-01-22 18:18:00,57.0,34.7,30.26,NNW,329,0.0,0.0,43,0.00,,,0.00,0,Wunderground v.1.15,2013-01-22 23:18:00,
2013-01-22 18:23:00,56.7,35.0,30.26,NNW,329,0.0,0.0,44,0.00,,,0.00,0,Wunderground v.1.15,2013-01-22 23:23:00,
2013-01-22 18:33:00,56.1,35.6,30.27,NNW,329,0.0,0.0,46,0.00,,,0.00,0,Wunderground v.1.15,2013-01-22 23:33:00,
2013-01-22 18:43:00,55.4,36.0,30.27,NNW,329,0.0,0.0,48,0.00,,,0.00,0,Wunderground v.1.15,2013-01-22 23:43:00,
2013-01-22 18:48:00,55.1,36.3,30.27,NNW,329,0.0,0.0,49,0.00,,,0.00,0,Wunderground v.1.15,2013-01-22 23:48:00,
2013-01-22 18:58:00,54.4,35.6,30.27,NNW,329,0.0,0.0,49,0.00,,,0.00,0,Wunderground v.1.15,2013-01-22 23:58:00,
2013-01-22 19:03:00,54.0,35.8,30.27,NNW,329,0.0,0.0,50,0.00,,,0.00,0,Wunderground v.1.15,2013-01-23 00:03:00,
2013-01-22 19:13:00,53.4,35.7,30.27,NNW,329,0.0,0.0,51,0.00,,,0.00,0,Wunderground v.1.15,2013-01-23 00:13:00,
2013-01-22 19:18:00,53.2,35.5,30.27,NNW,329,0.0,0.0,51,0.00,,,0.00,0,Wunderground v.1.15,2013-01-23 00:18:00,
2013-01-22 19:28:00,52.7,35.6,30.27,NNW,329,0.0,0.0,52,0.00,,,0.00,0,Wunderground v.1.15,2013-01-23 00:28:00,
2013-01-22 19:33:00,52.4,35.3,30.27,NNW,329,0.0,0.0,52,0.00,,,0.00,0,Wunderground v.1.15,2013-01-23 00:33:00,
2013-01-22 19:43:00,52.0,35.9,30.27,NNW,329,0.0,0.0,54,0.00,,,0.00,0,Wunderground v.1.15,2013-01-23 00:43:00,
2013-01-22 19:48:00,51.8,35.7,30.27,NNW,329,0.0,0.0,54,0.00,,,0.00,0,Wunderground v.1.15,2013-01-23 00:48:00,
2013-01-22 19:58:00,51.4,36.7,30.27,NNW,329,0.0,0.0,57,0.00,,,0.00,0,Wunderground v.1.15,2013-01-23 00:58:00,
2013-01-22 20:03:00,51.2,36.9,30.27,NNW,329,0.0,0.0,58,0.00,,,0.00,0,Wunderground v.1.15,2013-01-23 01:03:00,
2013-01-22 20:13:00,50.8,36.5,30.27,NNW,329,0.0,0.0,58,0.00,,,0.00,0,Wunderground v.1.15,2013-01-23 01:13:00,
2013-01-22 20:18:00,50.6,36.4,30.27,NNW,329,0.0,0.0,58,0.00,,,0.00,0,Wunderground v.1.15,2013-01-23 01:18:00,
2013-01-22 20:28:00,50.1,36.7,30.28,NNW,329,0.0,0.0,60,0.00,,,0.00,0,Wunderground v.1.15,2013-01-23 01:28:00,
2013-01-22 20:38:00,49.7,36.4,30.28,NNW,329,0.0,0.0,60,0.00,,,0.00,0,Wunderground v.1.15,2013-01-23 01:38:00,
2013-01-22 20:43:00,49.6,36.7,30.28,NNW,329,0.0,0.0,61,0.00,,,0.00,0,Wunderground v.1.15,2013-01-23 01:43:00,
2013-01-22 20:48:00,49.4,36.9,30.28,NNW,329,0.0,0.0,62,0.00,,,0.00,0,Wunderground v.1.15,2013-01-23 01:48:00,
2013-01-22 20:58:00,49.1,36.6,30.28,NNW,329,0.0,0.0,62,0.00,,,0.00,0,Wunderground v.1.15,2013-01-23 01:58:00,
2013-01-22 21:03:00,48.8,36.4,30.28,NNW,329,0.0,0.0,62,0.00,,,0.00,0,Wunderground v.1.15,2013-01-23 02:03:00,
2013-01-22 21:13:00,48.4,35.1,30.28,NNW,329,0.0,0.0,60,0.00,,,0.00,0,Wunderground v.1.15,2013-01-23 02:13:00,
2013-01-22 21:18:00,48.2,35.0,30.28,NNW,329,0.0,0.0,60,0.00,,,0.00,0,Wunderground v.1.15,2013-01-23 02:18:00,
2013-01-22 21:28:00,47.9,34.7,30.29,NNW,329,0.0,0.0,60,0.00,,,0.00,0,Wunderground v.1.15,2013-01-23 02:28:00,
2013-01-22 21:33:00,47.8,34.6,30.29,NNW,329,0.0,0.0,60,0.00,,,0.00,0,Wunderground v.1.15,2013-01-23 02:33:00,
2013-01-22 21:43:00,47.6,34.8,30.29,NNW,329,0.0,0.0,61,0.00,,,0.00,0,Wunderground v.1.15,2013-01-23 02:43:00,
2013-01-22 21:48:00,47.5,35.1,30.29,NNW,329,0.0,0.0,62,0.00,,,0.00,0,Wunderground v.1.15,2013-01-23 02:48:00,
2013-01-22 21:58:00,47.3,34.9,30.29,NNW,329,0.0,0.0,62,0.00,,,0.00,0,Wunderground v.1.15,2013-01-23 02:58:00,
2013-01-22 22:03:00,47.2,34.8,30.29,NNW,329,0.0,0.0,62,0.00,,,0.00,0,Wunderground v.1.15,2013-01-23 03:03:00,
2013-01-22 22:13:00,47.0,34.6,30.29,NNW,329,0.0,0.0,62,0.00,,,0.00,0,Wunderground v.1.15,2013-01-23 03:13:00,
2013-01-22 22:18:00,46.9,34.6,30.30,NNW,329,0.0,0.0,62,0.00,,,0.00,0,Wunderground v.1.15,2013-01-23 03:18:00,
2013-01-22 22:28:00,46.6,34.7,30.30,NNW,329,0.0,0.0,63,0.00,,,0.00,0,Wunderground v.1.15,2013-01-23 03:28:00,
2013-01-22 22:33:00,46.5,35.0,30.31,NNW,329,0.0,0.0,64,0.00,,,0.00,0,Wunderground v.1.15,2013-01-23 03:33:00,
2013-01-22 22:43:00,46.3,35.2,30.31,NNW,329,0.0,0.0,65,0.00,,,0.00,0,Wunderground v.1.15,2013-01-23 03:43:00,
2013-01-22 22:48:00,46.3,35.2,30.31,NNW,329,0.0,0.0,65,0.00,,,0.00,0,Wunderground v.1.15,2013-01-23 03:48:00,
2013-01-22 22:58:00,46.0,34.5,30.31,NNW,329,0.0,0.0,64,0.00,,,0.00,0,Wunderground v.1.15,2013-01-23 03:58:00,
2013-01-22 23:03:00,46.0,34.5,30.31,NNW,329,0.0,0.0,64,0.00,,,0.00,0,Wunderground v.1.15,2013-01-23 04:03:00,
2013-01-22 23:13:00,45.8,34.3,30.32,NNW,329,0.0,0.0,64,0.00,,,0.00,0,Wunderground v.1.15,2013-01-23 04:13:00,
2013-01-22 23:18:00,45.7,33.8,30.32,NNW,329,0.0,0.0,63,0.00,,,0.00,0,Wunderground v.1.15,2013-01-23 04:18:00,
2013-01-22 23:28:00,45.6,33.7,30.32,NNW,329,0.0,0.0,63,0.00,,,0.00,0,Wunderground v.1.15,2013-01-23 04:28:00,
2013-01-22 23:33:00,45.5,33.2,30.31,NNW,329,0.0,0.0,62,0.00,,,0.00,0,Wunderground v.1.15,2013-01-23 04:33:00,
2013-01-22 23:43:00,45.5,33.2,30.31,NNW,329,0.0,0.0,62,0.00,,,0.00,0,Wunderground v.1.15,2013-01-23 04:43:00,
2013-01-22 23:48:00,45.6,32.9,30.32,NNW,329,0.0,0.0,61,0.00,,,0.00,0,Wunderground v.1.15,2013-01-23 04:48:00,
2013-01-22 23:58:00,45.7,33.4,30.32,NNW,329,0.0,0.0,62,0.00,,,0.00,0,Wunderground v.1.15,2013-01-23 04:58:00,